Weather in Sokal

Ukraine / Lviv District     50˚28′47″N   24˚17′05″E
temp.,
°C
wind,
m/s
gust,
m/s
humid.,
%
clouds,
%
prec.,
mm/h
press.,
hPa
HPBL,
m
30 november, mon
mon3023:00−3˚w228913 0.0 102349
02:00−2˚w238814 0.0 1024117
05:00−2˚w358960 0.0 1024162
08:00−2˚wsw369173 0.0 1025233
11:00−1˚wsw458297 0.0 1027527
14:00w457786 0.1 1026681
17:00wsw3577100 0.0 1027490
20:00−1˚wsw2579100 0.1 1027404
1 december, tue
tue123:00−1˚sw3578100 0.1 1027335
02:00−2˚ssw227694 0.1 102781
05:00−3˚sse348385 0.0 1027135
08:00−3˚se358549 0.0 1027140
11:00sse57740 0.0 1027511
14:00+1˚se46680 0.0 1026546
17:00−2˚ese48810 0.0 1026176
20:00−2˚ese49810 0.0 1027269
2 december, wed
wed223:00−3˚ese48810 0.0 1028248
02:00−3˚ese37820 0.0 1028208
05:00−4˚e48850 0.0 1027216
08:00−4˚e38900 0.0 1027224
11:00−2˚ese468511 0.0 1026314
14:00ese468016 0.0 1025458
17:00−2˚e379249 0.0 1024240
20:00−1˚ese479073 0.0 1023312
3 december, thu
thu323:00−1˚ese4790100 0.0 1023317
02:00−1˚se379199 0.0 1022327
05:00−2˚se489394 0.0 1021276
08:00−2˚se499297 0.0 1021406
11:00se687860 0.0 1020512
14:00+1˚se597645 0.0 1019486
17:00−1˚se5108649 0.0 1019306
20:00−1˚se6128473 0.0 1018389
4 december, fri
fri423:00−1˚se51083100 0.0 1017353
02:00−1˚se51186100 0.0 1015346
05:00se5139219 0.0 1014391
08:00+3˚se6149148 0.0 1012547
11:00+5˚se81484100 0.0 1012756
14:00+6˚se71584100 0.0 1010735
17:00+4˚se6139030 0.0 1010342
20:00+4˚se5159251 0.0 1011408